Flag for Congo Dem.Rep. Weather past 2 weeks in Kinshasa, Congo Dem.Rep.

Now
77 °F

Clear.


Feels Like: 79 °F
Forecast: 70 / 92 °F
Wind: 7 mph from Southwest

Location: Brazzaville / Maya-Maya

Current Time: Sep 3, 2015 at 8:20:25 PM

Latest Report: Sep 3, 2015 at 8:00 PM


Visibility: 5 mi

Pressure: 29.95 "Hg

Humidity: 69%

Dew point: 66 °F

Location of KinshasaLocation

Historic Weather in Kinshasa — Graph

°F

Kinshasa temperature yesterday

Maximum temperature yesterday: 84 °F (at 4:00 PM)
Minimum temperature yesterday: 68 °F (at 5:00 AM)
Average temperature yesterday: 75 °F

Past Weeks' High & Low Weather Summary

 TemperatureHumidityPressure
High91 °F (Aug 20, 3:00 PM)94% (Aug 26, 7:00 AM)30.09 "Hg (Aug 26, 7:00 AM)
Low66 °F (Aug 29, 5:00 AM)46% (Aug 20, 3:00 PM)29.80 "Hg (Aug 20, 3:00 PM)
Average77 °F70%29.95 "Hg
* Reported Aug 19 7:00 PM — Sep 3 7:00 PM, Kinshasa, Weather by CustomWeather, © 2015

Note: Actual official high and low records may vary slightly from our data, if they occured in-between our weather recording intervals... More about our weather records

Advertising

Kinshasa weather history for previous 24 hours

 ConditionsComfort  
Time TempWeatherWind HumidityBarometerVisibility
7:00 PM
Thu, Sep 3
79 °FClear.6 mph65%29.92 "Hg5 mi
6:00 PM81 °FClear.10 mph62%29.92 "Hg5 mi
5:00 PM82 °FPassing clouds.9 mph58%29.92 "Hg5 mi
3:00 PM82 °FPartly sunny.10 mph58%29.92 "Hg5 mi
2:00 PM81 °FOvercast.7 mph62%29.98 "Hg5 mi
1:00 PM82 °FPartly sunny.7 mph58%29.98 "Hg5 mi
12:00 PM81 °FPartly sunny.7 mph62%30.01 "Hg5 mi
11:00 AM79 °FPassing clouds.6 mph65%30.04 "Hg5 mi
10:00 AM77 °FPassing clouds.6 mph69%30.04 "Hg5 mi
9:00 AM77 °FPassing clouds.2 mph69%30.07 "Hg5 mi
8:00 AM73 °FClear.7 mph78%30.04 "Hg4 mi
7:00 AM72 °FPartly sunny.3 mph78%30.01 "Hg4 mi
6:00 AM72 °FPartly sunny.1 mph78%30.01 "Hg5 mi
5:00 AM70 °FPassing clouds.3 mph83%30.01 "Hg5 mi
4:00 AM72 °FClear.3 mph78%29.98 "Hg5 mi
3:00 AM72 °FClear.2 mph78%29.98 "Hg5 mi
2:00 AM72 °FClear.3 mph78%30.01 "Hg5 mi
1:00 AM72 °FClear.1 mph78%30.01 "Hg5 mi
12:00 AM73 °FClear.3 mph74%30.01 "Hg4 mi
11:00 PM
Wed, Sep 2
75 °FClear.2 mph69%30.04 "Hg4 mi
10:00 PM77 °FClear.6 mph65%30.01 "Hg4 mi
9:00 PM77 °FClear.2 mph69%29.98 "Hg4 mi
8:00 PM79 °FClear.No wind65%29.95 "Hg4 mi
Weather by CustomWeather, © 2015

See weather overviewHow to use our weather pages